Theta_e
339 338 341 346 346 346 346 347 348 348 348 347 347 346 345 343 343 343 343 343 343 344 343 346 346 345 345 344 345 344 344 343 343 343 342 343 344 343 344 344 346 346 345 346 345 344 345 344 344 344 344 344 343 342 341 341 340 341 340 341 341 340 338 337 338 337 333 333 330 328 329 331 334 335 334 334 335 334 334 333 333 329 328 330 333
339 340 342 343 346 347 347 348 348 347 346 346 345 345 344 343 342 343 343 343 343 343 345 345 346 345 343 343 344 344 344 343 342 343 342 343 343 343 343 343 344 343 344 344 344 343 343 341 344 343 343 344 342 341 340 339 338 338 338 338 338 337 336 337 338 338 338 339 336 335 332 331 330 330 333 333 333 332 335 331 331 328 323 334 332
342 341 342 345 345 346 347 347 346 346 346 345 345 344 343 343 342 343 343 343 343 344 345 346 346 345 344 343 344 343 343 343 343 342 342 343 343 343 343 343 343 343 343 343 343 342 342 342 341 343 343 342 342 341 340 339 337 336 336 336 336 336 336 336 336 337 337 337 337 334 336 334 332 332 331 334 332 331 331 330 329 331 326 329 329
340 340 342 346 346 347 347 346 346 346 345 344 344 343 343 343 343 344 344 344 343 345 345 345 345 344 344 344 343 343 342 343 343 342 343 343 342 341 343 344 343 343 343 343 342 341 341 342 342 342 342 342 341 339 338 337 336 335 335 335 335 335 335 335 335 335 334 333 332 331 326 317 322 334 332 330 329 330 328 329 330 329 329 327 328
340 341 343 344 344 346 348 346 345 345 344 344 343 343 344 344 344 344 344 344 346 345 344 344 344 343 343 343 343 343 344 343 342 343 341 341 341 341 342 343 343 343 343 342 342 342 342 342 342 341 341 340 339 338 337 336 335 334 334 333 333 333 334 334 334 333 332 331 331 326 317 316 315 330 331 329 329 330 328 328 327 326 326 325 326
341 342 343 343 343 345 348 346 345 344 343 343 343 343 343 344 345 346 345 345 345 345 344 345 343 343 344 343 343 343 342 342 342 342 341 342 341 340 341 340 340 341 342 342 341 340 341 341 340 341 341 340 340 339 337 336 335 334 334 333 334 334 334 333 333 331 330 329 327 318 315 316 317 321 333 332 332 330 329 329 328 328 327 327 329
342 342 343 343 343 344 347 346 344 344 343 343 344 344 345 346 345 345 346 345 345 345 345 345 343 343 343 343 343 342 343 343 342 341 341 341 339 338 337 337 338 339 339 339 339 339 338 341 340 339 339 338 338 338 337 337 335 335 334 333 333 333 333 333 333 331 329 322 315 314 314 316 315 317 331 332 333 327 327 328 328 328 329 330 327
341 342 341 342 342 345 346 346 345 343 343 344 344 346 346 345 345 344 344 345 346 345 345 344 344 343 342 342 342 343 343 342 342 341 338 337 336 335 334 333 334 336 337 337 337 337 336 335 335 335 337 337 337 337 336 335 334 334 333 333 332 332 333 333 334 331 329 315 314 313 315 315 315 315 329 333 333 330 327 329 328 330 331 331 327
340 341 342 340 341 345 345 345 346 344 342 343 343 344 344 345 344 345 344 345 345 345 345 344 344 343 343 343 342 342 342 340 339 337 336 335 334 333 332 333 332 334 333 334 332 334 335 334 334 333 336 337 336 336 334 334 333 333 333 333 332 332 333 333 333 330 320 316 314 313 313 318 318 315 326 334 334 334 329 329 335 331 331 332 329
341 341 341 341 340 344 344 345 345 344 342 342 341 343 345 345 344 344 344 344 345 344 344 344 343 343 342 342 341 340 339 338 336 336 336 335 333 332 331 330 330 332 331 332 333 332 331 331 333 333 333 335 336 335 334 333 333 332 332 332 333 333 333 333 332 327 315 315 314 313 317 330 317 317 325 333 335 334 333 335 333 334 331 331 332
338 340 340 339 339 341 344 345 346 344 343 342 342 345 345 345 344 344 344 345 345 344 344 343 343 342 341 340 339 338 338 337 337 336 336 335 333 331 331 332 332 331 330 331 331 331 330 331 331 332 332 333 334 334 334 334 333 332 331 332 332 332 332 333 331 316 315 313 313 314 319 327 315 313 332 333 334 335 334 339 336 336 335 334 333
338 338 339 339 342 340 342 344 345 345 343 342 342 343 345 344 344 343 343 342 343 343 343 342 342 341 340 340 339 338 338 337 337 336 335 334 331 330 330 330 330 330 330 330 330 331 332 331 331 330 330 331 331 331 331 331 332 332 332 331 330 330 334 331 325 320 316 313 313 318 313 314 314 319 332 334 334 335 334 334 337 336 336 336 336
335 338 338 338 338 339 341 343 344 345 346 345 344 344 344 343 342 342 341 341 342 343 342 341 341 341 340 339 338 338 338 337 337 336 335 334 332 331 330 330 329 329 330 332 331 331 331 330 329 330 330 329 330 331 331 330 329 330 331 330 330 331 330 329 324 321 319 313 314 314 313 313 313 328 331 333 334 334 334 334 334 335 336 335 335
336 338 337 337 339 340 338 340 342 343 344 344 344 343 343 343 341 341 340 341 341 341 341 341 340 340 339 338 338 337 337 337 337 336 335 334 333 331 330 331 331 329 330 330 330 330 330 329 329 330 329 328 329 329 330 330 329 329 329 328 327 330 329 327 326 321 319 316 318 316 315 316 312 328 331 332 334 334 334 334 334 333 332 333 333
334 336 337 337 337 339 340 338 340 340 342 343 343 343 342 341 341 341 340 340 340 340 341 341 340 340 339 338 338 337 336 336 337 337 336 334 332 332 330 331 330 330 330 329 329 329 329 330 330 328 328 328 329 329 329 330 331 330 329 329 330 331 330 325 325 322 320 319 317 315 313 312 325 330 330 330 331 333 334 334 334 334 334 334 334
335 335 337 337 337 337 338 341 337 337 338 339 340 342 343 342 341 341 340 340 340 340 340 340 340 339 339 338 337 337 337 336 336 338 337 337 334 333 332 332 332 333 331 331 331 331 330 330 330 329 329 330 329 329 328 329 329 329 329 328 329 331 330 329 325 323 321 319 317 317 315 314 328 331 331 330 329 330 333 334 335 335 334 335 335
333 334 334 336 337 337 338 337 335 335 335 336 336 338 341 343 342 341 340 340 340 340 340 339 339 336 339 340 339 337 337 337 337 338 336 337 337 337 335 332 333 333 333 332 332 334 334 333 332 332 332 331 331 331 330 330 330 329 330 331 330 329 328 329 325 323 321 321 320 318 317 317 325 332 333 333 332 330 330 332 334 335 335 334 334
322 324 328 333 334 337 338 337 335 334 333 334 334 334 336 338 339 340 341 342 341 341 340 340 339 338 338 337 337 338 338 339 337 337 336 335 335 334 335 335 334 334 334 334 334 334 333 334 334 334 334 334 334 333 333 333 332 333 332 331 330 328 327 327 322 322 321 322 321 321 319 323 330 333 334 334 334 334 333 332 333 333 334 336 335
317 318 321 324 328 336 337 337 337 337 336 335 335 334 332 333 335 335 335 335 334 335 335 334 334 333 333 333 333 334 334 334 335 336 335 334 334 334 331 331 334 335 335 335 335 335 335 335 334 334 335 335 335 334 334 333 334 334 332 331 329 328 327 325 320 321 321 321 321 321 319 326 332 334 335 333 333 334 334 334 334 333 333 334 335
314 314 315 319 322 330 334 334 335 335 336 336 335 335 332 331 332 333 333 333 332 331 329 327 329 329 328 328 330 331 331 331 333 333 333 333 333 328 330 330 332 334 336 336 336 336 336 335 335 335 335 335 335 335 334 335 334 333 332 330 329 327 324 318 318 320 321 321 322 322 323 330 334 335 334 334 334 334 334 334 335 334 334 335 335
312 312 311 313 318 321 327 333 333 334 335 334 333 334 333 332 332 331 330 330 330 330 329 328 329 327 326 326 328 328 330 329 328 328 331 329 328 326 328 330 332 334 335 335 336 336 336 336 336 336 335 334 334 334 334 334 333 332 331 328 327 324 321 317 318 319 320 320 321 320 327 331 334 336 336 335 335 335 334 335 336 336 336 336 336
308 309 310 310 313 317 320 325 331 333 333 334 334 333 333 332 332 332 334 332 331 332 332 334 335 333 327 328 329 330 330 329 329 330 329 329 326 326 327 328 331 333 334 335 335 335 336 337 336 336 335 334 333 331 328 329 330 330 328 325 324 321 320 319 317 318 318 318 320 321 327 330 333 336 337 336 336 336 336 336 336 336 336 336 337
305 306 308 308 309 312 316 319 324 328 332 332 333 333 333 334 333 333 333 331 332 332 333 332 332 332 332 331 330 329 329 328 329 330 332 328 328 324 325 327 329 330 331 332 333 333 334 334 335 334 334 333 330 327 326 326 326 327 326 325 323 321 320 319 318 319 319 319 319 325 328 331 335 336 337 337 335 335 334 335 335 336 336 336 336
303 304 305 307 307 309 312 315 319 323 328 331 332 332 332 332 332 332 331 331 330 330 330 329 329 330 330 330 330 330 329 329 330 331 331 327 324 322 322 323 325 326 326 327 328 328 330 331 331 331 331 330 329 328 327 327 328 327 326 325 324 323 322 321 320 319 319 319 320 325 328 331 334 336 337 338 336 335 334 334 335 334 334 335 335
302 302 303 304 305 306 309 313 316 319 324 328 329 330 330 330 330 329 328 327 326 326 325 324 324 325 325 326 327 326 326 326 325 325 325 322 320 321 320 320 321 322 323 321 322 322 323 321 321 324 323 325 325 327 328 327 327 327 326 325 324 324 323 322 321 319 319 319 319 324 327 330 333 335 337 337 337 336 335 334 334 334 334 335 335
301 299 300 302 303 305 307 311 314 317 321 325 325 325 325 324 324 323 322 322 322 321 321 320 319 319 320 321 323 323 323 323 323 322 321 320 320 320 320 318 318 319 320 320 320 320 321 320 322 323 323 323 323 323 325 325 326 326 325 325 325 324 323 323 322 321 320 319 319 324 326 327 329 333 335 337 337 336 335 335 335 335 334 334 335
298 298 300 300 303 303 305 309 312 315 317 319 319 319 319 319 319 318 316 316 317 316 316 316 315 314 315 317 319 320 321 321 321 322 322 321 320 320 320 320 321 321 320 320 320 320 320 322 322 321 321 321 322 323 323 323 323 324 324 324 325 324 324 323 323 322 322 321 321 323 324 326 328 332 334 336 337 337 336 336 335 335 334 334 334
296 297 298 299 300 301 303 306 309 312 314 314 313 313 313 313 312 313 312 313 312 313 312 312 311 309 309 310 314 317 317 316 317 318 320 320 320 320 320 320 321 321 320 320 321 322 322 322 321 320 320 321 321 322 322 321 321 321 321 322 323 323 323 324 323 323 322 322 321 321 322 325 327 330 332 334 336 336 337 336 335 335 335 334 333
294 296 297 298 299 301 301 304 307 309 310 310 308 309 309 308 307 307 308 310 309 310 309 307 306 306 306 307 308 310 312 313 313 314 316 316 316 317 317 318 319 320 321 322 322 322 322 322 321 321 321 320 320 320 320 320 320 320 321 321 320 321 321 322 321 321 321 321 322 321 321 323 325 327 330 332 334 334 335 336 336 336 335 334 334
294 295 296 297 298 299 300 301 304 307 307 307 305 305 305 305 305 305 305 306 306 307 306 304 304 303 303 304 305 306 308 309 310 312 312 311 312 313 313 314 315 318 320 320 321 321 321 321 321 321 321 321 321 321 320 319 319 319 319 319 319 319 319 319 319 319 319 319 320 319 320 320 322 324 327 329 330 332 333 334 335 335 335 335 335
293 293 295 296 298 298 299 300 303 306 305 305 304 303 303 303 304 304 304 304 304 304 304 303 302 301 301 302 303 304 305 307 307 308 310 310 309 310 311 312 313 314 315 315 318 318 320 320 320 320 320 321 321 321 320 319 318 318 317 317 318 318 318 318 318 318 318 318 318 317 317 319 320 322 324 327 329 331 332 333 333 334 335 335 335
292 292 294 296 296 297 298 299 301 303 303 303 304 302 302 302 302 302 302 302 303 302 302 301 300 300 300 300 300 301 303 303 304 305 306 307 308 308 310 311 311 312 312 312 312 313 315 315 314 316 319 320 320 320 320 318 318 317 317 317 318 317 317 317 317 317 317 317 317 317 317 317 319 320 322 324 326 328 329 331 332 333 334 334 335
292 293 293 295 295 295 297 298 300 301 301 300 301 301 300 300 300 300 300 301 300 301 301 300 299 299 298 299 299 299 300 300 301 302 303 303 304 306 307 308 309 310 310 310 310 311 311 310 310 312 314 317 317 316 315 316 316 317 318 318 318 318 318 317 317 316 316 316 317 317 317 317 316 318 320 321 322 325 327 329 330 331 333 334 335
292 292 293 293 296 296 296 297 298 299 301 300 300 299 299 299 299 298 299 298 297 297 298 297 297 296 296 296 297 297 297 298 299 299 300 300 301 302 303 304 306 307 308 307 306 307 308 308 307 308 310 311 308 307 306 306 308 311 313 316 317 317 317 316 315 316 316 316 316 316 317 317 317 317 317 319 319 321 324 327 328 330 331 333 334
292 292 293 293 294 295 297 296 298 297 298 299 298 297 297 297 297 297 297 297 296 296 296 295 295 294 294 294 295 295 295 295 297 297 297 297 297 298 299 301 303 304 304 303 303 303 304 305 305 305 308 307 304 304 303 303 304 306 308 312 314 315 315 315 315 315 315 316 317 317 318 318 318 317 318 317 319 319 321 324 326 328 329 330 332
291 292 293 294 294 295 296 295 296 296 297 298 298 296 296 296 296 297 295 296 295 294 294 294 294 293 293 292 293 295 293 293 294 295 294 294 295 295 297 298 298 299 299 299 299 300 301 302 302 303 303 302 300 300 300 300 302 304 306 309 310 311 313 314 315 315 317 317 317 317 317 317 317 317 315 317 317 318 320 321 324 326 327 327 328
291 291 292 293 294 295 296 296 295 295 296 296 297 297 295 295 294 295 294 294 294 293 293 293 293 292 292 291 292 294 292 292 292 293 293 292 292 292 294 295 296 295 295 295 295 297 298 299 299 300 301 299 297 297 298 299 301 301 304 305 306 307 310 313 315 315 313 311 312 312 313 314 314 314 317 317 318 317 318 319 320 322 323 323 324
291 290 290 291 292 293 295 296 296 297 296 296 296 296 295 295 294 294 295 293 293 293 293 292 292 292 291 291 292 292 293 291 291 292 292 292 291 291 292 292 293 292 292 292 292 294 294 296 296 298 299 297 294 294 295 297 299 298 299 300 302 306 309 312 308 301 301 304 307 308 309 309 310 313 315 316 316 317 317 317 319 319 319 319 320
289 289 289 290 290 290 291 290 292 293 294 295 295 295 295 294 294 293 293 292 292 292 292 292 292 291 291 291 291 291 292 291 291 291 291 290 290 290 290 291 291 290 290 290 290 291 291 292 293 294 296 296 294 294 294 296 295 295 295 296 300 304 307 305 298 297 298 302 305 306 305 303 306 307 309 310 310 312 314 315 316 317 317 317 319
288 288 289 288 288 288 289 289 290 291 292 292 293 293 293 293 291 291 291 291 291 292 291 291 291 291 292 291 290 290 290 292 290 290 290 290 289 289 289 290 290 289 288 288 288 289 289 289 290 291 291 293 293 292 293 293 292 293 293 294 297 300 305 300 296 295 296 302 300 302 299 300 300 302 303 302 303 306 310 313 314 314 314 315 317
287 286 286 287 287 287 288 287 288 289 290 289 290 290 290 291 291 290 289 290 290 290 290 290 290 290 290 290 290 290 290 290 291 290 289 290 289 289 289 289 289 289 288 287 288 288 289 289 289 290 289 288 289 290 291 292 289 290 292 291 292 296 301 297 293 294 296 300 297 298 297 296 297 298 298 297 298 301 306 308 305 305 310 314 315
286 286 285 286 286 287 286 287 288 288 289 289 288 289 289 289 289 289 289 288 288 287 287 289 289 290 290 290 289 289 289 289 291 290 289 289 288 288 288 288 288 288 288 288 288 289 288 288 288 287 288 287 286 288 289 290 286 287 287 287 289 292 292 295 291 293 296 295 295 295 295 294 295 295 295 295 296 299 301 298 298 301 307 309 309
285 285 285 285 285 285 286 286 287 287 287 290 288 287 288 288 288 288 288 288 289 289 288 289 289 288 288 288 289 288 288 288 288 290 289 288 288 288 288 288 288 289 287 286 286 286 287 287 287 286 286 286 286 288 287 289 285 288 288 286 285 285 286 289 289 292 295 293 293 293 294 293 294 294 293 293 294 297 295 295 296 299 300 300 303
285 284 284 284 285 287 285 285 286 286 286 288 291 287 289 288 288 288 288 287 286 289 287 287 287 287 287 288 288 288 288 288 287 288 289 287 287 287 287 287 287 288 286 285 285 285 285 286 286 286 286 284 284 284 287 288 288 287 282 284 285 284 280 282 285 290 293 292 292 292 292 292 293 293 292 292 294 293 293 294 295 296 296 297 299
284 284 284 284 285 284 284 285 285 285 286 288 287 287 287 286 286 286 286 286 285 285 285 285 285 287 286 286 286 287 288 287 287 287 289 288 288 287 287 287 287 287 287 285 284 284 285 285 286 285 284 284 283 283 285 287 287 289 287 284 283 281 280 283 286 287 290 290 289 290 291 291 291 291 291 292 293 292 292 293 293 294 295 296 298
283 284 284 284 283 284 284 284 285 285 285 285 286 287 284 283 284 283 282 282 282 283 282 283 283 284 284 285 285 286 287 287 287 287 287 289 287 287 287 286 286 287 288 286 285 285 284 285 286 285 284 285 284 282 282 285 286 288 287 289 289 285 283 285 285 280 289 289 289 289 289 289 290 290 290 292 291 291 292 292 292 292 293 295 297
283 283 283 284 283 284 283 283 284 285 285 285 285 288 284 283 282 283 283 282 281 283 284 284 284 285 285 283 284 284 285 285 286 285 286 287 287 287 287 286 286 286 289 286 285 285 285 285 287 285 284 286 284 282 282 282 284 285 287 286 287 288 288 286 282 285 281 285 286 286 287 288 288 288 289 291 289 290 290 291 291 291 293 295 295
282 283 283 283 283 283 283 282 283 285 283 284 284 286 286 283 282 282 286 282 282 282 283 283 284 286 283 283 284 283 284 284 284 284 284 285 287 286 286 285 285 285 289 285 285 285 286 286 286 285 285 285 284 283 282 282 281 282 285 284 284 285 285 286 287 286 285 280 280 285 286 286 287 287 289 288 288 289 289 289 290 291 293 294 295
282 282 283 282 282 282 283 282 281 282 282 283 285 282 287 285 282 282 281 283 285 285 284 283 283 283 281 282 282 283 283 283 283 284 284 284 286 285 284 284 284 284 288 286 284 285 284 284 284 283 283 284 284 286 283 282 282 282 282 282 282 282 283 284 285 288 282 279 279 280 281 284 285 286 287 287 288 288 288 289 290 291 292 293 294
281 283 282 282 282 281 282 282 280 281 282 281 282 281 282 284 282 281 281 281 282 282 281 281 281 281 281 281 281 282 282 282 283 283 283 283 283 284 285 283 283 284 287 284 283 283 283 283 283 283 284 283 283 283 283 283 283 283 283 283 282 282 281 281 281 281 281 282 279 279 280 280 280 282 285 285 286 287 287 288 289 290 291 292 293
280 280 280 280 280 281 280 280 280 280 281 280 281 281 281 281 281 281 281 280 281 281 280 280 280 280 280 281 281 281 281 282 282 282 282 282 282 285 284 283 284 286 286 283 282 282 283 283 283 283 282 282 282 282 283 283 283 282 282 282 282 282 281 280 280 281 280 279 279 279 280 281 280 280 282 285 285 286 287 288 288 289 290 291 291
Wind_Speed
7 8 5 9 11 12 12 12 11 10 12 12 13 13 13 12 12 10 10 9 9 8 9 10 7 8 8 8 9 10 9 9 9 9 7 8 9 8 8 9 10 10 10 10 9 8 7 7 7 8 9 10 11 12 12 11 11 11 10 11 11 10 8 8 10 11 9 7 5 3 3 5 5 3 5 4 6 7 5 6 6 3 4 4 7
9 6 5 6 10 11 11 11 12 11 11 12 13 13 12 12 11 10 9 8 8 7 11 8 8 8 8 9 9 9 10 9 8 9 9 9 9 9 8 9 10 10 10 9 9 7 7 7 6 7 8 10 10 11 10 10 10 10 10 9 10 9 9 10 11 11 10 10 8 9 6 8 6 6 2 2 3 5 4 4 4 2 3 4 5
7 7 5 7 11 9 9 10 11 11 11 11 12 13 12 12 10 10 9 8 7 7 8 8 8 8 8 8 8 9 10 10 10 9 9 10 9 9 10 9 10 9 9 9 10 8 7 6 7 7 8 9 10 10 9 9 9 9 9 9 9 9 9 9 10 9 9 9 10 11 10 11 11 11 4 3 2 3 3 3 3 3 3 5 4
7 5 4 7 11 9 9 11 10 11 10 11 12 12 12 11 10 10 9 7 7 9 8 8 9 8 8 9 10 11 11 11 11 11 11 10 9 11 11 11 9 9 9 9 8 7 7 6 8 8 8 9 9 9 9 8 8 7 8 8 8 8 9 9 9 10 9 9 9 6 3 4 7 10 9 4 3 2 1 3 4 5 5 6 6
6 5 5 4 6 8 9 12 10 10 11 11 12 12 12 11 10 9 7 7 10 8 8 8 9 7 8 9 11 11 11 12 11 11 9 11 12 11 12 12 12 11 10 9 7 7 7 9 9 9 9 9 8 8 7 6 6 7 7 7 6 7 8 9 9 10 10 9 8 6 3 3 3 8 10 5 6 3 1 3 5 5 6 5 6
6 4 4 4 4 6 11 12 12 11 11 11 12 12 11 10 9 9 8 9 9 8 8 8 9 8 9 11 11 11 11 11 10 11 10 11 11 11 11 11 10 10 10 9 8 7 8 9 8 8 8 7 7 8 7 6 6 7 7 6 6 7 7 8 8 9 8 9 7 3 3 3 3 4 10 10 7 6 4 7 6 6 5 5 6
6 5 5 4 4 6 11 12 13 12 12 12 11 11 11 10 9 9 8 9 9 8 8 8 9 9 9 10 10 10 10 10 11 10 10 12 11 11 10 10 9 8 8 9 9 9 8 8 7 7 6 6 6 6 6 6 5 6 6 6 6 7 7 7 7 7 7 5 4 3 4 3 3 3 9 12 10 2 4 6 6 7 7 7 2
5 4 4 3 3 7 9 11 11 12 12 12 12 11 11 10 9 8 8 9 8 9 9 9 9 10 9 10 9 10 11 11 10 11 11 11 11 10 10 8 8 7 7 7 7 7 7 7 6 7 6 4 4 4 4 4 4 4 4 4 5 6 6 7 6 6 6 3 2 3 3 3 3 3 8 12 11 8 6 7 6 5 6 8 2
5 5 5 2 3 8 10 11 10 10 11 12 11 10 10 10 9 9 9 9 9 9 9 10 10 10 10 10 9 9 11 11 10 10 10 10 9 9 8 8 7 6 6 5 5 6 6 6 5 5 7 8 5 3 2 2 3 4 4 4 6 6 6 6 6 6 3 2 2 3 3 3 2 2 5 11 12 10 7 8 4 7 7 6 8
5 5 3 5 2 8 9 10 10 10 9 10 10 10 10 9 9 10 10 9 9 9 10 11 10 9 10 10 10 10 9 9 8 8 8 8 8 8 8 7 5 5 6 7 5 5 6 6 6 5 6 7 6 6 2 2 4 4 4 6 5 6 6 6 6 5 2 1 1 2 2 5 3 3 5 9 12 11 9 4 3 5 5 8 10
7 5 4 3 4 8 8 8 8 10 9 9 11 11 10 10 10 10 10 10 10 10 10 10 9 8 8 9 9 8 8 7 7 7 7 7 7 7 6 7 7 6 6 5 5 5 5 5 5 5 5 5 5 5 4 4 5 6 6 5 5 5 4 3 5 2 2 2 2 2 4 7 3 3 8 9 12 13 14 5 7 6 8 10 12
6 6 3 3 6 8 7 9 9 9 9 8 8 10 10 10 9 9 9 10 10 9 9 10 10 9 8 8 7 7 6 5 5 5 5 5 6 5 5 5 4 5 4 4 3 4 4 4 4 5 5 5 4 4 4 4 5 7 9 8 7 7 4 3 2 2 3 2 3 2 3 3 3 5 11 9 10 13 14 12 10 10 11 10 11
6 5 4 5 5 6 8 8 8 8 9 10 11 9 9 10 9 8 8 9 9 9 8 9 10 9 9 8 7 6 5 4 4 4 3 3 4 4 4 3 3 3 3 4 4 3 3 4 5 6 6 7 7 7 7 6 6 7 8 10 9 6 3 3 1 3 3 3 3 3 3 3 3 8 10 11 12 13 12 12 13 12 13 14 13
5 5 4 6 4 11 12 10 10 11 11 11 10 10 10 8 9 9 8 9 9 9 9 10 9 9 8 7 7 6 6 5 4 3 2 3 3 4 3 3 3 3 2 2 2 3 3 4 5 5 5 6 6 7 8 8 8 7 8 7 7 4 2 2 3 3 4 4 4 4 3 3 4 9 11 12 13 14 14 14 14 14 14 14 14
10 8 8 6 6 7 11 10 12 12 11 10 9 8 10 10 10 9 9 8 7 7 7 7 7 7 7 6 5 5 5 6 6 6 4 3 2 3 2 4 4 4 4 3 4 4 4 5 6 7 7 7 7 7 7 8 8 8 8 8 9 4 2 1 3 2 4 5 4 4 4 4 8 12 13 13 14 15 16 16 15 15 16 16 16
12 11 9 6 7 7 6 8 12 12 11 10 10 9 9 9 9 9 8 7 7 6 6 5 6 6 6 5 5 5 5 6 6 5 4 3 3 3 4 4 5 5 5 5 6 6 6 7 7 7 7 8 8 8 8 8 8 9 8 8 6 6 5 3 3 4 4 5 5 4 4 4 10 12 14 15 15 16 17 17 17 17 17 17 17
13 12 12 9 6 6 4 5 9 12 12 12 11 10 9 8 8 7 6 6 6 6 6 5 6 6 6 6 5 6 6 6 5 5 4 4 5 4 3 5 7 7 7 8 8 8 8 9 10 9 9 9 9 9 9 9 9 9 8 7 7 7 7 5 3 4 4 5 5 5 5 5 9 13 15 15 16 16 17 17 18 18 18 18 18
16 17 15 12 9 3 4 6 7 7 7 8 9 10 11 12 10 9 7 6 5 6 7 7 7 8 7 7 7 6 5 5 4 4 6 5 5 5 5 6 8 10 9 10 10 11 11 11 11 12 12 12 12 12 11 10 10 9 8 8 7 8 8 7 3 3 4 4 4 5 5 8 14 15 17 17 17 16 17 17 17 17 18 19 19
16 16 14 14 13 7 7 8 8 7 7 6 5 7 10 10 11 12 12 12 13 11 9 8 7 7 6 5 6 6 7 7 6 4 2 5 6 5 5 8 10 12 12 10 11 12 12 13 13 13 13 13 14 13 12 12 10 9 9 8 8 8 9 6 3 4 4 4 5 6 5 13 14 16 18 18 18 18 18 17 17 17 18 18 19
13 15 13 12 12 11 12 8 7 7 5 5 5 5 6 8 9 10 9 8 7 6 7 7 6 6 6 6 7 6 5 5 8 6 5 4 4 2 4 7 8 9 10 12 12 12 13 13 13 14 14 14 13 14 14 12 10 10 10 9 8 8 5 3 3 4 4 4 6 6 9 14 16 17 18 18 18 18 18 18 18 19 18 19 19
11 14 14 13 13 15 14 9 8 7 6 5 5 5 6 7 6 7 6 7 5 5 4 2 3 3 4 5 5 3 3 4 5 5 6 4 5 5 6 7 7 9 10 12 13 14 14 15 14 15 16 15 13 13 11 11 10 10 9 9 8 5 4 3 4 4 4 5 6 6 13 15 17 17 19 18 18 18 18 18 19 19 19 19 19
11 11 14 15 12 11 11 12 8 9 7 5 3 4 4 5 4 3 4 5 6 7 5 5 6 4 5 3 3 2 2 2 3 4 5 5 5 6 6 7 8 10 10 10 11 11 12 14 15 16 15 14 12 7 5 7 9 10 9 9 6 4 4 4 4 5 5 5 5 7 13 15 16 17 18 18 18 18 18 19 19 19 19 20 20
11 10 10 13 12 10 11 11 11 10 8 7 5 5 6 4 4 5 6 6 5 6 6 6 6 6 7 7 6 5 5 4 3 4 5 8 7 8 7 6 6 8 9 10 9 8 9 10 11 12 13 13 8 6 5 5 6 9 9 6 5 5 5 5 5 5 6 6 5 10 14 15 16 17 17 18 19 19 19 19 20 20 20 20 20
9 8 9 10 12 11 11 10 11 12 10 6 6 6 5 6 8 8 7 7 8 9 9 9 9 9 9 7 6 7 6 5 9 11 8 5 5 6 7 7 7 6 6 5 7 8 9 9 9 9 7 3 4 5 5 6 6 5 5 5 5 6 5 5 5 5 5 6 6 12 14 16 17 17 18 18 20 19 19 19 19 20 21 21 21
8 8 10 11 13 12 11 12 12 11 11 10 10 10 9 10 10 9 9 9 9 9 8 9 10 10 10 8 8 8 7 7 7 6 6 6 6 6 5 4 3 3 4 4 4 5 5 4 4 5 4 4 3 4 4 5 5 5 5 5 5 6 6 6 6 5 6 6 7 12 15 16 17 18 18 19 20 20 20 20 20 21 21 21 21
9 12 11 11 12 12 12 10 11 12 12 10 11 11 13 11 11 10 10 10 10 9 9 9 10 11 9 9 8 9 9 8 8 8 7 7 7 7 6 4 4 4 3 4 4 4 4 3 4 5 5 5 4 4 4 5 5 5 5 5 5 6 6 6 6 6 6 6 7 14 15 15 16 18 19 19 20 21 21 21 21 21 21 22 22
9 10 9 9 11 12 12 11 11 10 12 11 10 10 10 9 9 10 10 10 8 9 9 9 9 11 11 11 9 8 7 7 8 8 8 7 7 7 7 5 6 7 6 6 6 5 5 5 4 5 5 5 5 4 5 4 4 5 5 5 5 5 5 6 6 6 6 6 7 14 15 15 17 18 19 19 20 22 22 22 22 22 22 23 23
9 10 10 9 10 13 11 11 11 11 9 10 11 10 9 10 9 9 10 9 9 9 9 9 9 11 11 9 8 7 7 8 8 8 8 7 7 7 7 7 7 6 6 4 5 6 5 5 5 6 6 5 5 6 5 5 5 5 6 5 5 5 5 6 6 7 6 6 7 9 11 14 16 17 19 19 21 22 23 23 24 24 23 24 24
13 12 8 10 11 11 11 13 11 11 10 9 11 9 9 10 11 10 10 8 9 9 8 9 10 9 10 11 10 9 9 8 8 8 7 8 8 9 8 9 8 8 7 7 6 7 7 6 6 6 6 6 5 6 5 6 5 5 6 6 5 5 5 6 6 6 6 6 7 9 13 13 15 17 18 20 20 22 23 23 24 24 25 25 25
11 9 10 9 10 11 13 13 12 10 9 10 8 10 9 10 10 10 8 9 9 8 9 10 9 10 11 10 10 9 9 8 8 8 8 9 9 8 9 9 8 8 9 9 8 6 7 7 7 7 7 6 6 6 5 6 6 5 5 6 6 6 6 6 6 6 6 6 6 7 12 14 14 15 17 18 19 20 21 23 23 24 25 25 25
9 12 10 9 8 10 11 11 11 10 9 11 9 9 9 10 9 7 7 9 8 7 8 8 9 9 9 10 11 10 8 8 9 9 8 8 8 8 9 8 9 9 9 10 9 8 7 7 7 7 7 7 6 6 6 6 6 5 5 6 7 6 6 6 6 6 7 7 6 7 8 12 14 14 16 17 19 20 20 21 23 23 24 25 26
11 11 8 7 9 11 10 11 10 10 10 10 8 9 9 8 8 8 8 8 8 8 8 8 9 10 11 11 11 10 9 9 10 9 9 9 8 8 8 9 9 9 9 9 9 9 8 8 9 9 7 6 6 6 6 6 6 6 5 6 6 6 6 6 6 6 7 7 7 7 7 8 11 14 14 16 18 19 20 20 22 23 24 25 25
6 7 8 9 10 8 9 10 9 9 10 10 9 8 7 7 8 8 8 8 8 7 8 9 9 9 10 11 11 11 10 9 9 10 9 9 9 9 9 9 9 8 8 10 10 9 9 9 10 9 9 8 8 9 9 7 7 8 7 6 5 6 6 6 6 6 7 7 7 7 7 7 7 11 14 15 15 17 19 20 21 22 22 23 24
7 6 9 11 8 6 6 6 8 10 10 9 8 8 8 8 8 8 8 8 8 8 9 8 9 10 10 12 12 12 11 10 10 10 9 9 9 9 9 10 9 10 9 10 9 9 8 9 10 9 9 8 9 8 9 9 8 8 8 8 6 6 6 6 6 6 6 6 6 6 7 6 7 7 8 12 14 14 17 19 20 21 22 22 23
8 9 10 9 9 8 7 7 8 8 8 9 10 9 8 8 8 8 8 8 8 8 8 9 9 9 9 10 11 11 12 12 11 9 10 9 9 10 11 10 9 9 9 9 9 9 9 9 9 9 8 8 9 8 9 8 9 9 8 8 7 7 6 6 6 5 5 6 5 6 7 7 8 8 8 8 10 13 14 16 19 20 20 21 22
9 7 7 8 10 10 9 8 9 10 9 8 8 8 9 8 8 8 8 8 8 9 8 8 8 8 9 9 10 11 11 12 11 10 9 10 10 10 9 9 10 9 9 10 10 10 9 8 10 10 10 11 11 11 9 9 9 9 8 8 8 8 7 6 6 5 5 5 5 6 7 7 7 8 9 8 8 10 15 16 17 19 20 20 21
6 6 6 7 8 9 9 11 11 10 9 9 8 8 8 8 8 8 9 9 9 8 8 7 8 9 8 9 9 10 11 11 11 10 10 10 10 9 10 10 9 9 9 9 9 9 10 9 10 11 9 9 10 12 12 10 10 10 8 8 8 8 6 6 5 6 6 6 6 7 7 8 8 9 7 7 8 8 11 15 17 17 17 18 19
8 9 9 8 8 7 7 8 7 8 8 8 8 7 7 8 8 8 9 10 10 8 8 8 9 8 9 10 10 9 10 11 11 10 9 9 9 9 9 11 10 9 10 10 10 10 10 10 9 10 9 9 11 12 13 12 10 10 9 8 8 7 6 5 6 8 7 7 7 8 8 8 8 8 8 8 8 8 8 10 13 14 15 16 19
8 9 9 8 6 7 7 8 9 9 8 8 7 7 7 7 7 8 9 9 9 8 8 9 8 9 9 9 10 9 9 10 10 10 9 9 9 9 10 10 9 9 10 10 10 11 11 11 10 9 9 8 10 10 11 10 11 10 9 9 7 6 4 5 8 9 8 6 7 7 7 9 8 9 9 9 9 10 10 9 8 7 8 14 16
7 7 8 8 8 8 7 8 9 9 7 7 6 6 6 7 8 7 9 9 8 8 8 8 8 9 9 9 9 9 9 9 9 9 9 9 9 9 9 9 9 9 10 12 12 11 13 13 12 11 11 8 10 10 12 11 10 8 9 8 6 6 2 6 8 10 8 5 9 6 8 8 8 9 9 10 10 9 9 9 8 9 9 11 15
6 7 8 9 10 9 8 11 8 8 7 7 7 7 7 6 7 9 8 7 7 7 7 7 8 7 8 8 9 8 9 9 9 9 9 8 8 8 9 9 9 9 9 10 9 10 10 9 8 8 11 10 10 12 12 10 11 12 11 7 6 5 3 5 10 12 9 6 8 6 8 9 9 8 10 10 9 9 8 9 10 10 10 9 11
9 8 9 9 8 8 10 9 8 9 9 8 7 7 7 6 5 6 5 5 6 7 7 7 7 7 8 8 8 8 8 9 8 8 8 8 8 8 8 9 8 8 8 7 8 8 10 10 8 8 8 10 9 11 12 11 13 11 12 12 6 3 5 2 11 12 8 7 8 6 8 9 10 9 9 10 9 7 9 10 10 10 10 10 11
6 8 7 7 9 9 9 8 8 8 8 8 7 7 6 6 5 4 5 4 5 5 5 5 5 6 7 7 7 7 8 8 8 7 7 8 8 8 8 7 8 7 8 9 9 10 10 11 11 9 8 7 5 8 12 12 8 9 7 4 10 15 8 2 5 9 6 8 8 8 10 10 10 9 9 9 8 7 9 10 10 10 12 12 11
6 6 8 8 7 8 7 8 8 8 8 9 7 7 7 6 5 4 4 5 4 4 4 5 6 7 8 7 7 7 7 7 7 7 6 6 7 7 6 7 7 7 7 7 9 9 9 9 10 9 7 9 9 9 9 10 9 12 14 7 7 6 14 14 19 13 5 10 9 10 10 10 10 9 9 9 7 9 9 9 10 11 11 12 11
6 6 6 6 5 6 6 6 6 7 7 8 8 6 6 6 6 5 4 3 3 5 5 7 7 6 6 7 7 6 6 6 6 7 7 7 6 6 6 6 6 6 6 6 7 8 7 7 8 8 9 7 9 6 7 8 8 7 4 6 5 5 5 12 17 12 5 12 8 11 11 12 11 11 11 8 6 9 9 10 11 10 11 11 11
6 5 4 4 5 6 6 7 6 6 7 6 6 5 6 6 6 7 8 7 7 7 8 7 7 7 7 5 6 6 6 6 6 6 7 6 6 7 6 6 6 6 5 5 5 5 7 8 8 6 7 7 4 7 7 5 6 5 6 2 1 3 10 12 8 14 14 5 11 8 11 11 10 12 11 8 10 11 9 11 11 11 11 10 10
4 4 4 5 6 6 6 5 5 6 6 6 7 5 7 6 6 5 4 4 4 4 3 4 4 5 5 5 5 5 4 5 5 4 4 5 5 5 6 5 5 5 5 5 5 6 6 6 6 6 6 6 5 6 7 8 4 2 3 4 5 4 6 7 9 12 17 14 9 13 11 10 12 13 11 7 13 12 12 11 12 11 11 10 10
4 4 5 5 6 6 5 6 5 5 5 6 7 6 6 5 6 5 3 4 3 3 4 4 3 3 5 5 5 5 5 4 4 4 4 4 4 5 5 5 5 5 4 4 5 5 5 5 5 5 5 5 5 5 6 6 7 7 4 4 4 5 6 6 7 8 11 16 20 13 12 11 13 11 7 12 14 14 15 14 13 12 10 11 10
3 4 4 3 4 4 4 4 5 4 5 5 4 5 4 4 4 4 5 4 3 4 4 3 4 4 5 5 5 5 5 5 4 4 4 4 3 4 4 4 4 5 4 4 4 4 5 5 6 6 5 6 5 5 5 6 6 7 7 5 4 5 6 6 7 5 8 13 16 13 18 20 13 5 9 11 11 13 14 14 13 12 12 11 10
3 3 3 3 4 4 4 4 4 4 3 4 4 4 3 3 4 3 3 5 4 5 4 5 5 4 5 6 5 6 6 6 6 4 5 4 4 4 4 4 4 5 4 4 4 5 4 5 5 5 6 5 5 5 6 6 5 6 5 7 7 8 6 5 3 6 7 6 12 16 12 16 21 20 8 11 15 14 14 12 13 12 11 10 10
3 2 3 3 3 3 3 4 4 3 3 3 3 3 2 1 2 2 2 3 4 4 5 6 5 5 6 6 6 6 6 6 6 6 4 5 5 4 4 5 5 4 5 5 5 5 5 5 6 5 5 6 6 6 6 6 6 6 7 6 7 7 7 9 11 8 8 10 12 14 13 9 15 20 19 15 14 14 12 12 11 12 11 11 11
Wind_Direction
143 145 156 157 140 140 142 143 148 144 122 118 116 115 111 108 110 117 115 113 107 102 100 85 96 94 86 83 82 78 78 79 79 80 82 78 71 65 58 53 54 61 70 67 60 66 76 79 79 69 72 85 86 82 73 72 74 73 69 68 66 66 58 48 42 48 45 24 7 3 18 11 34 46 27 31 48 57 41 44 43 8 13 358 31
138 136 140 147 145 142 150 157 138 128 125 125 119 116 114 112 116 118 116 113 103 104 91 91 82 82 79 79 81 91 91 83 83 78 67 65 61 59 59 60 60 57 57 61 65 61 71 82 80 78 74 73 68 69 69 65 68 69 68 66 66 62 49 43 42 43 42 37 30 36 14 16 355 342 35 349 24 60 36 46 40 46 326 342 23
122 131 143 150 148 156 149 126 122 122 126 127 123 120 118 116 119 118 114 109 99 87 78 88 86 81 81 82 82 81 82 82 78 75 74 66 71 66 63 64 61 56 59 58 58 61 61 58 74 68 72 63 64 67 64 59 66 67 64 59 53 51 51 43 46 35 39 33 28 17 12 11 351 346 331 57 6 38 12 346 341 29 302 350 351
130 136 135 150 156 165 142 117 115 119 123 124 119 118 115 116 112 108 106 103 96 88 82 84 85 85 84 81 82 77 77 84 85 80 74 74 68 68 71 67 61 64 63 55 55 61 70 67 69 65 65 65 69 73 75 73 72 71 64 57 49 44 45 40 35 40 30 33 28 29 20 5 349 331 321 279 335 285 118 290 310 307 314 320 322
124 133 139 152 153 166 127 117 113 116 119 117 114 112 111 111 115 111 108 98 89 87 86 85 86 81 81 94 90 89 82 76 74 81 74 66 58 50 50 54 60 57 60 64 63 61 53 51 54 52 57 63 63 72 78 81 76 68 62 53 45 42 39 37 31 35 29 27 28 33 9 354 347 321 310 304 299 29 167 296 287 298 304 306 301
128 123 134 136 135 140 117 116 116 115 115 116 115 115 115 114 113 106 100 93 88 94 89 87 97 99 96 84 84 75 69 70 74 67 64 65 57 48 44 44 43 43 52 57 56 55 58 60 65 71 68 64 74 76 72 63 68 59 51 41 33 27 34 41 36 33 30 24 24 18 359 346 337 304 292 288 304 118 290 275 268 270 286 280 307
119 120 136 117 117 116 123 122 117 116 113 115 118 119 116 111 110 106 95 91 93 87 86 83 87 99 99 96 85 82 77 73 71 67 58 54 47 41 34 32 33 36 39 43 48 44 51 65 63 53 49 54 70 78 79 70 58 53 43 32 19 17 9 27 44 38 36 34 11 2 354 334 315 300 280 278 283 229 260 268 262 269 265 293 293
89 99 84 78 88 106 114 114 114 117 118 116 112 109 109 105 101 90 84 84 88 88 90 91 97 97 94 87 86 80 80 80 73 59 53 48 41 32 25 21 29 32 37 36 40 36 34 37 27 25 27 65 68 70 75 71 58 49 35 18 7 1 360 2 33 43 47 43 10 350 335 321 302 269 278 268 273 286 270 263 271 255 294 318 327
78 77 91 22 80 110 120 115 118 119 118 114 109 104 99 93 86 83 76 75 82 91 98 98 98 97 92 92 93 90 76 66 61 60 56 47 40 36 31 22 21 23 21 20 15 29 28 8 7 7 20 21 22 21 24 34 33 18 354 350 337 338 345 360 15 34 44 48 352 323 322 298 321 269 277 274 277 277 284 270 292 309 312 312 285
99 105 96 118 134 100 109 116 118 118 111 109 108 104 98 92 88 81 77 83 90 96 98 98 99 100 102 101 88 74 69 69 67 60 55 49 44 44 40 34 24 20 26 13 24 37 18 8 5 356 16 13 15 15 5 1 337 341 336 336 345 342 344 357 7 17 37 15 329 307 294 348 11 340 293 283 277 281 285 271 168 221 238 260 270
113 112 76 53 92 83 105 105 107 112 111 107 104 103 100 94 90 87 91 88 86 90 94 95 95 95 91 88 87 87 84 81 68 61 58 53 49 54 47 46 42 34 20 5 6 357 0 11 360 4 354 4 8 22 20 331 313 309 317 332 329 332 330 17 3 342 353 343 327 304 344 347 353 320 308 295 275 279 289 197 213 212 244 258 264
97 85 84 68 77 76 92 96 101 108 110 108 105 103 102 95 92 90 89 89 92 96 92 81 77 78 83 81 78 80 89 83 71 68 67 59 54 54 62 56 48 39 23 13 344 29 12 3 352 343 332 331 330 338 334 335 326 313 303 306 310 308 62 17 22 334 323 318 315 328 343 342 328 308 313 307 285 281 278 271 258 267 270 266 269
62 103 72 77 78 48 68 86 92 90 84 76 78 96 104 111 99 88 86 82 85 92 86 84 77 73 68 64 67 73 74 69 59 55 62 46 48 49 46 43 47 37 35 23 21 22 6 341 340 335 332 323 313 302 301 303 307 309 308 303 306 350 69 20 353 315 314 312 311 321 322 316 306 301 310 306 293 290 287 279 274 271 265 274 276
89 77 78 95 77 65 49 61 79 77 80 82 79 88 102 92 91 89 82 76 71 72 75 78 75 69 64 57 50 43 42 37 28 28 40 28 21 21 16 6 4 354 8 356 336 354 334 324 317 315 314 316 314 309 307 305 303 307 303 296 297 316 13 335 322 315 308 311 307 307 313 307 293 296 301 297 293 288 287 286 283 279 280 279 278
54 41 74 55 48 52 49 57 82 78 76 74 72 74 73 78 78 80 79 71 67 64 64 68 68 63 59 48 41 30 24 19 24 21 7 3 357 350 350 341 337 330 319 308 301 298 292 297 290 289 290 291 293 292 294 296 299 299 303 310 314 329 262 269 305 306 307 307 307 310 302 301 298 304 302 296 290 285 284 284 282 279 278 280 283
37 43 43 56 55 58 27 52 77 80 76 71 68 61 63 70 80 79 76 71 65 60 63 62 63 65 55 46 30 19 15 10 6 16 357 340 305 307 312 316 314 305 304 294 287 292 288 276 277 276 277 283 280 280 280 281 286 292 294 290 291 288 276 247 282 295 297 302 302 304 304 299 300 302 300 296 290 284 280 280 281 284 284 280 277
32 28 34 24 39 53 51 46 62 60 56 54 50 47 49 54 59 68 71 71 67 59 54 45 44 46 51 43 29 17 7 7 1 355 353 336 311 307 294 290 300 304 302 304 296 290 287 281 276 278 277 273 275 277 276 279 281 283 286 280 266 267 267 260 243 265 283 291 295 303 302 303 295 296 298 297 293 287 280 277 277 278 279 278 276
35 31 25 19 3 62 86 66 60 58 50 48 45 45 44 40 36 33 41 61 72 68 58 45 46 44 39 31 27 22 8 9 352 343 340 337 327 322 315 297 296 307 310 310 305 302 295 290 287 290 290 290 290 289 288 282 281 279 278 280 274 267 267 258 236 242 258 275 280 289 291 288 288 292 295 295 292 289 284 279 277 277 278 281 282
35 32 27 20 0 326 77 57 47 52 52 50 48 44 49 49 43 39 35 32 27 20 36 43 44 36 27 19 10 358 345 335 337 338 313 314 334 360 1 328 313 306 301 298 299 297 298 302 297 288 285 289 294 293 288 286 281 277 273 272 272 271 269 268 247 245 258 265 273 279 268 281 283 288 292 293 292 290 286 283 279 278 275 273 276
35 32 29 20 9 6 43 42 34 43 52 62 53 50 45 55 57 51 41 40 35 32 36 6 17 24 4 0 347 344 333 326 324 318 315 308 312 301 293 287 288 288 294 297 297 295 297 298 293 290 288 288 288 292 293 285 275 275 276 277 278 279 277 268 246 242 245 251 260 258 268 274 279 284 292 293 291 290 287 283 282 280 277 277 279
24 26 25 22 16 21 18 28 31 23 25 37 42 35 33 31 43 61 43 33 30 27 36 30 337 8 13 351 343 338 322 323 325 313 308 301 290 275 269 267 268 284 292 298 298 298 297 296 298 303 299 300 305 298 291 281 277 278 281 282 284 281 264 255 249 249 248 251 251 252 261 269 277 281 288 292 290 288 286 283 283 283 283 282 280
24 20 21 20 18 21 16 16 16 20 19 24 35 32 28 33 42 51 41 24 15 18 7 357 350 350 346 340 330 312 321 320 314 317 309 305 295 285 274 273 280 291 291 291 292 294 296 300 303 305 304 304 309 311 298 289 284 281 280 284 285 270 264 258 255 256 254 253 250 255 259 265 272 277 283 289 289 289 288 287 286 287 285 282 280
22 21 21 21 16 16 18 17 22 14 16 25 24 27 23 7 25 38 32 22 22 27 9 359 358 356 345 337 336 339 334 318 304 296 302 305 309 312 311 303 295 295 298 297 284 283 288 291 294 298 302 298 297 293 296 288 281 279 282 281 273 268 267 260 257 254 256 254 254 257 261 264 268 273 277 285 289 289 289 288 288 287 288 285 282
17 19 20 19 18 18 17 20 23 21 18 20 34 40 30 29 37 39 41 38 35 35 30 28 23 18 16 3 354 346 335 326 322 324 321 325 318 320 318 321 322 323 321 315 314 312 310 308 304 298 294 289 284 279 284 282 282 280 278 273 274 270 265 263 256 255 255 254 254 257 262 264 266 269 273 277 285 290 289 288 286 285 283 281 282
10 21 26 19 14 13 15 19 22 25 23 25 34 35 33 40 39 37 40 39 38 36 34 32 27 26 24 19 13 11 3 352 345 344 342 335 329 317 319 317 315 315 326 318 306 305 308 301 300 297 276 266 256 261 263 276 273 275 272 276 275 274 270 262 259 256 254 257 255 258 262 265 268 271 272 275 284 290 290 289 287 284 283 283 282
15 31 16 16 13 14 17 18 27 28 30 34 37 35 37 36 35 34 39 36 35 37 34 32 27 22 24 17 16 18 12 8 6 360 354 347 335 328 323 321 328 305 306 305 304 307 308 305 301 293 288 282 266 259 252 246 262 264 262 260 265 271 270 271 269 266 262 260 261 265 263 262 266 270 272 274 279 285 289 289 288 287 284 283 281
17 28 18 18 13 16 16 22 31 29 33 38 44 43 40 41 40 37 40 35 35 34 33 31 28 25 22 19 18 10 10 10 5 2 2 354 351 346 340 342 329 327 328 333 327 320 315 311 301 292 297 299 292 285 280 272 259 259 257 253 247 250 260 269 271 271 271 268 269 268 266 264 266 267 270 273 275 279 282 286 287 286 284 283 282
23 15 18 17 17 17 16 26 31 30 29 34 47 44 40 40 39 38 40 32 38 35 34 30 29 28 24 21 15 17 14 13 7 5 0 359 2 354 355 1 357 349 340 344 328 324 325 320 316 313 312 307 304 302 299 297 290 281 279 269 260 250 242 240 242 246 250 256 263 262 259 262 264 268 270 272 274 276 280 282 284 284 283 282 281
27 14 3 13 14 14 15 29 23 28 31 33 47 45 42 44 40 38 36 25 41 37 37 37 35 27 27 24 19 17 18 15 11 3 356 12 8 11 10 8 2 359 351 349 351 337 329 329 325 321 320 316 314 310 310 305 299 292 285 286 278 270 263 262 259 259 255 252 249 247 248 250 255 260 266 270 275 277 279 279 281 282 283 282 282
20 10 14 10 3 8 18 22 23 33 36 41 40 45 40 46 40 39 36 37 40 38 39 42 35 30 27 22 20 22 21 16 11 6 13 15 13 11 17 12 4 0 2 359 350 346 340 335 336 329 324 320 315 307 312 306 303 296 291 289 286 279 278 275 273 270 268 265 261 264 260 257 257 257 260 263 267 271 275 277 278 280 283 284 283
16 22 15 9 359 18 20 16 28 30 37 46 42 45 43 48 43 37 38 38 35 42 45 43 38 32 24 20 24 22 17 17 17 13 17 19 18 17 17 10 12 10 10 4 1 358 352 352 346 338 331 327 321 318 318 314 305 298 288 283 283 289 285 280 280 278 277 274 272 272 273 268 267 264 264 266 269 271 272 275 278 279 280 281 283
21 18 12 358 18 24 20 22 28 36 43 47 42 44 42 42 40 40 40 37 32 41 43 42 40 33 25 24 23 18 15 17 18 18 18 19 19 18 17 16 14 9 10 7 6 3 6 5 1 353 345 333 330 331 329 317 315 307 302 293 289 284 281 278 276 275 274 275 275 275 273 276 274 272 271 271 272 275 277 278 280 280 280 283 283
11 11 6 18 21 16 28 27 30 41 48 46 48 48 43 36 40 40 35 34 33 30 35 34 36 32 27 25 23 19 15 17 16 19 18 22 22 19 20 19 15 9 8 6 7 7 5 4 4 358 0 358 359 359 349 341 338 333 321 311 300 291 282 280 278 279 275 275 278 280 283 286 285 281 278 275 273 273 275 278 279 279 278 279 281
8 2 12 22 16 13 21 28 31 40 48 51 46 48 44 47 44 43 40 36 38 39 38 37 35 32 29 26 25 20 17 16 16 18 19 23 20 19 18 19 13 10 10 8 9 7 8 6 5 358 1 5 3 356 350 348 342 335 334 328 316 303 298 289 282 280 283 293 298 299 297 291 288 287 286 279 275 271 272 275 277 279 280 279 278
21 16 15 6 15 17 17 32 28 38 43 52 53 51 47 48 47 45 44 43 44 44 41 39 37 33 29 29 25 24 20 17 13 16 20 21 20 20 21 18 11 9 13 13 11 10 11 9 1 2 355 7 360 354 351 344 337 336 331 325 322 315 307 298 296 298 314 316 313 310 307 305 302 300 295 297 289 285 280 276 279 281 282 281 282
26 23 21 18 23 15 14 29 32 37 38 42 54 56 53 52 52 50 47 43 47 46 41 40 37 34 33 31 24 27 24 19 17 17 24 22 21 19 15 10 12 13 16 15 13 14 8 8 11 4 3 9 357 354 351 345 337 329 325 320 318 314 312 313 322 337 338 330 328 325 327 321 317 310 308 305 304 301 296 291 289 289 289 288 285
19 20 25 24 29 17 19 21 20 27 32 36 42 52 53 52 51 50 48 46 46 44 42 37 38 36 33 32 24 26 26 23 20 19 28 24 22 21 13 9 11 16 15 14 17 12 11 11 12 7 7 5 359 353 352 348 336 328 320 319 315 314 324 336 1 10 351 353 349 349 345 341 335 327 332 325 318 314 309 306 307 300 294 289 285
20 25 24 23 20 17 19 24 20 25 32 31 34 42 45 49 49 48 47 49 46 43 41 37 38 35 31 32 25 26 27 25 23 22 28 26 25 23 17 14 14 17 19 17 18 12 13 12 10 7 4 12 5 1 353 342 335 328 322 321 313 315 337 23 33 12 358 349 355 353 351 346 341 344 339 338 333 326 320 317 313 308 302 294 296
22 22 25 24 24 25 25 24 22 20 24 27 28 37 42 46 49 48 48 47 46 44 39 42 38 35 35 29 28 28 24 25 25 24 28 26 26 23 23 17 18 19 21 20 18 14 14 10 12 7 7 15 11 2 353 337 337 329 323 317 307 311 340 42 29 4 351 340 350 347 351 347 344 346 348 347 342 332 328 322 322 319 311 306 301
16 18 23 26 28 29 27 29 27 19 20 26 27 33 36 39 38 38 45 40 39 39 38 40 35 38 30 30 29 29 23 25 26 25 27 28 27 24 24 19 20 20 22 23 17 14 10 7 9 7 6 6 15 4 357 346 338 328 326 321 310 310 347 57 31 5 340 351 352 347 353 343 344 344 348 343 335 330 327 329 333 328 321 313 307
21 19 25 26 26 27 25 33 19 19 26 23 26 27 29 30 37 40 43 36 35 35 38 33 35 34 30 30 29 28 25 22 25 24 28 25 28 25 25 24 20 24 25 23 15 12 11 11 6 4 7 8 11 6 359 347 345 349 349 342 332 326 318 63 29 2 341 353 349 349 348 345 342 343 345 338 329 327 331 341 336 328 320 319 317
14 15 23 21 22 22 33 27 21 23 26 29 23 29 28 29 36 34 41 38 35 34 32 26 26 25 28 28 27 24 24 25 19 24 26 26 24 24 24 21 21 22 23 17 17 14 11 13 9 14 11 11 9 2 356 354 15 358 339 337 332 351 341 17 18 353 331 357 347 347 349 343 339 340 340 333 326 326 343 337 329 323 325 326 320
9 18 10 17 22 25 24 23 22 24 24 22 29 28 16 20 35 36 33 43 33 35 39 25 19 23 23 24 22 20 20 22 18 15 24 19 21 20 19 14 20 18 17 16 14 15 11 9 9 12 2 10 5 359 4 14 1 341 297 302 352 342 348 318 340 353 321 0 341 345 344 339 333 338 336 327 321 336 339 332 327 330 328 323 317
16 15 13 17 18 20 19 18 19 22 20 19 21 18 20 18 23 30 32 53 39 8 24 26 22 19 20 12 18 15 12 16 15 14 14 18 17 16 8 13 12 14 16 13 9 10 6 4 6 5 4 5 9 359 4 1 6 357 12 360 306 351 333 354 335 330 320 347 336 340 340 334 331 333 334 328 324 338 331 329 331 329 323 318 314
14 15 10 13 16 13 13 16 19 20 21 18 15 13 15 22 14 17 22 17 32 29 25 21 17 11 6 10 3 4 5 9 9 11 10 10 10 10 10 5 6 5 12 11 9 2 357 355 357 0 4 5 354 350 349 0 1 14 4 344 334 3 346 309 324 308 357 333 341 337 334 331 331 334 331 317 321 330 327 328 329 324 319 316 314
12 358 358 5 13 9 10 13 17 22 20 18 13 19 29 32 23 31 26 21 22 18 16 2 353 1 352 333 345 355 359 360 3 2 6 3 3 2 2 2 0 358 6 5 352 351 356 356 354 352 347 352 350 338 342 350 351 356 11 20 276 280 312 313 332 317 325 300 316 327 324 327 328 328 322 312 330 330 331 328 325 321 319 316 319
349 340 356 5 9 9 7 12 14 18 14 13 15 18 28 30 33 37 50 34 25 351 347 332 343 332 333 339 335 338 350 354 346 354 353 352 353 353 354 352 350 346 349 357 353 352 342 342 340 347 337 333 347 346 341 333 331 314 7 314 303 287 290 311 315 308 319 320 330 327 327 328 326 323 313 318 331 327 327 327 321 319 316 318 317
316 346 3 4 6 358 0 3 7 10 14 5 17 18 28 21 23 19 19 25 15 337 328 320 320 318 334 330 331 331 333 341 337 337 341 341 342 341 343 342 339 335 335 345 339 329 331 322 333 328 325 329 333 333 322 327 343 316 323 309 292 287 285 282 271 282 296 310 317 319 309 320 321 316 299 327 328 325 324 322 319 317 319 318 314
346 348 340 336 343 353 360 3 8 6 358 6 15 14 20 29 29 20 3 349 345 333 323 321 325 329 335 329 335 329 330 330 331 327 325 330 331 326 328 331 329 323 324 322 321 320 318 320 321 328 326 319 319 310 316 308 320 310 321 306 296 283 285 273 275 283 298 308 303 317 322 321 312 276 316 318 314 319 318 315 312 313 314 313 315
319 321 320 346 1 356 2 357 348 349 339 357 6 8 18 19 31 12 8 330 335 325 335 327 327 334 330 325 326 327 326 325 325 320 319 316 317 316 317 318 313 307 313 311 305 311 311 310 307 306 310 309 301 304 297 294 291 289 294 297 312 307 299 283 270 298 284 248 288 306 318 320 318 313 319 312 315 316 310 307 310 312 308 308 316
319 325 336 347 335 358 349 341 307 307 330 339 349 343 345 23 16 347 332 322 320 325 335 328 330 333 332 318 321 314 309 306 309 308 304 305 307 310 309 304 302 300 305 305 302 299 299 299 299 299 296 295 297 293 291 281 280 284 286 290 288 291 298 305 305 304 297 302 302 298 301 300 295 303 311 317 309 305 303 305 307 305 306 311 314